Location: Grand Rapids
(42.9630°N, 85.6680°W)
Time: 03:09:18
(UTC-04:00)

S-56A Canister/Altair - Pass Details

Date: 07 June 2024
Orbit: 637 x 2489 km, 38.9° (Epoch: 22 June)

Event Time Altitude Azimuth Distance (km) Brightness Sun altitude
Rises 23:25:33 0° 172° (S) 5,219 - -17.1°
Reaches altitude 10° 23:31:34 10° 149° (SSE) 4,603 - -17.7°
Maximum altitude 23:36:52 13° 124° (SE) 4,570 - -18.1°
Exits shadow 23:38:37 13° 116° (ESE) 4,667 11.0 -18.3°
Drops below altitude 10° 23:42:34 10° 100° (E) 5,050 11.3 -18.7°
Sets 23:49:49 0° 79° (E) 6,165 12.0 -19.3°
